Time,TemperatureF,DewpointF,PressureIn,WindDirection,WindDirectionDegrees,WindSpeedMPH,WindSpeedGustMPH,Humidity,HourlyPrecipIn,Conditions,Clouds,dailyrainin,SoftwareType,DateUTC
2013-03-02 00:08:00,47.5,40.0,29.98,East,83,0.0,-999.0,74,-99.99,,,0.00,weatherlink.com 1.10,2013-03-01 22:08:00,
2013-03-02 00:23:00,47.6,40.0,29.98,East,83,0.0,-999.0,75,-99.99,,,0.00,weatherlink.com 1.10,2013-03-01 22:23:00,
2013-03-02 00:38:00,47.9,40.0,29.98,East,83,0.0,-999.0,75,-99.99,,,0.00,weatherlink.com 1.10,2013-03-01 22:38:00,
2013-03-02 00:53:00,47.9,40.0,29.97,East,83,0.0,-999.0,75,-99.99,,,0.00,weatherlink.com 1.10,2013-03-01 22:53:00,
2013-03-02 01:08:00,47.9,41.0,29.98,East,83,0.0,-999.0,76,-99.99,,,0.00,weatherlink.com 1.10,2013-03-01 23:08:00,
2013-03-02 01:23:00,47.7,40.0,29.97,East,83,0.0,-999.0,76,-99.99,,,0.00,weatherlink.com 1.10,2013-03-01 23:23:00,
2013-03-02 01:38:00,47.4,41.0,29.97,East,83,0.0,-999.0,77,-99.99,,,0.00,weatherlink.com 1.10,2013-03-01 23:38:00,
2013-03-02 01:53:00,47.2,40.0,29.97,East,83,0.0,-999.0,77,-99.99,,,0.00,weatherlink.com 1.10,2013-03-01 23:53:00,
2013-03-02 02:08:00,47.0,40.0,29.97,East,83,0.0,-999.0,78,-99.99,,,0.00,weatherlink.com 1.10,2013-03-02 00:08:00,
2013-03-02 02:23:00,47.0,41.0,29.96,East,83,0.0,-999.0,79,-99.99,,,0.00,weatherlink.com 1.10,2013-03-02 00:23:00,
2013-03-02 02:38:00,46.8,41.0,29.96,East,83,0.0,-999.0,79,-99.99,,,0.00,weatherlink.com 1.10,2013-03-02 00:38:00,
2013-03-02 02:53:00,46.7,41.0,29.95,East,83,0.0,-999.0,79,-99.99,,,0.00,weatherlink.com 1.10,2013-03-02 00:53:00,
2013-03-02 03:08:00,46.8,41.0,29.95,East,83,0.0,-999.0,80,-99.99,,,0.00,weatherlink.com 1.10,2013-03-02 01:08:00,
2013-03-02 03:23:00,46.7,41.0,29.94,East,83,0.0,-999.0,80,-99.99,,,0.00,weatherlink.com 1.10,2013-03-02 01:23:00,
2013-03-02 03:38:00,46.7,41.0,29.94,East,83,0.0,-999.0,80,-99.99,,,0.00,weatherlink.com 1.10,2013-03-02 01:38:00,
2013-03-02 03:53:00,46.8,41.0,29.94,East,83,4.0,-999.0,81,-99.99,,,0.00,weatherlink.com 1.10,2013-03-02 01:53:00,
2013-03-02 04:08:00,46.8,41.0,29.94,East,83,0.0,-999.0,81,-99.99,,,0.00,weatherlink.com 1.10,2013-03-02 02:08:00,
2013-03-02 04:23:00,46.8,41.0,29.94,East,83,0.0,-999.0,80,-99.99,,,0.00,weatherlink.com 1.10,2013-03-02 02:23:00,
2013-03-02 04:38:00,46.7,41.0,29.93,East,83,4.0,-999.0,80,-99.99,,,0.00,weatherlink.com 1.10,2013-03-02 02:38:00,
2013-03-02 04:53:00,46.6,41.0,29.93,East,83,2.0,-999.0,80,-99.99,,,0.00,weatherlink.com 1.10,2013-03-02 02:53:00,
2013-03-02 05:08:00,46.5,40.0,29.93,East,83,0.0,-999.0,79,-99.99,,,0.00,weatherlink.com 1.10,2013-03-02 03:08:00,
2013-03-02 05:23:00,46.3,40.0,29.93,East,83,0.0,-999.0,79,-99.99,,,0.00,weatherlink.com 1.10,2013-03-02 03:23:00,
2013-03-02 05:38:00,46.1,40.0,29.93,East,83,0.0,-999.0,80,-99.99,,,0.00,weatherlink.com 1.10,2013-03-02 03:38:00,
2013-03-02 05:53:00,46.0,40.0,29.93,East,83,0.0,-999.0,80,-99.99,,,0.00,weatherlink.com 1.10,2013-03-02 03:53:00,
2013-03-02 06:08:00,46.0,40.0,29.92,East,83,0.0,-999.0,79,-99.99,,,0.00,weatherlink.com 1.10,2013-03-02 04:08:00,
2013-03-02 06:23:00,46.1,40.0,29.92,East,83,0.0,-999.0,80,-99.99,,,0.00,weatherlink.com 1.10,2013-03-02 04:23:00,
2013-03-02 06:38:00,46.3,40.0,29.92,East,83,0.0,-999.0,80,-99.99,,,0.00,weatherlink.com 1.10,2013-03-02 04:38:00,
2013-03-02 06:53:00,46.2,40.0,29.92,East,83,0.0,-999.0,79,-99.99,,,0.00,weatherlink.com 1.10,2013-03-02 04:53:00,
2013-03-02 07:08:00,46.2,39.0,29.92,East,83,0.0,-999.0,77,-99.99,,,0.00,weatherlink.com 1.10,2013-03-02 05:08:00,
2013-03-02 07:23:00,46.4,39.0,29.93,East,83,0.0,-999.0,75,-99.99,,,0.00,weatherlink.com 1.10,2013-03-02 05:23:00,
2013-03-02 07:38:00,46.8,39.0,29.93,East,83,0.0,-999.0,75,-99.99,,,0.00,weatherlink.com 1.10,2013-03-02 05:38:00,
2013-03-02 07:53:00,47.5,40.0,29.93,East,83,0.0,-999.0,75,-99.99,,,0.00,weatherlink.com 1.10,2013-03-02 05:53:00,
2013-03-02 08:08:00,48.9,41.0,29.93,East,83,0.0,-999.0,75,-99.99,,,0.00,weatherlink.com 1.10,2013-03-02 06:08:00,
2013-03-02 08:24:00,50.6,42.0,29.93,East,83,0.0,-999.0,73,-99.99,,,0.00,weatherlink.com 1.10,2013-03-02 06:24:00,
2013-03-02 08:39:00,52.6,43.0,29.93,East,83,0.0,-999.0,69,-99.99,,,0.00,weatherlink.com 1.10,2013-03-02 06:39:00,
2013-03-02 08:54:00,52.8,42.0,29.93,East,83,0.0,-999.0,68,-99.99,,,0.00,weatherlink.com 1.10,2013-03-02 06:54:00,
2013-03-02 09:09:00,53.2,43.0,29.93,East,83,0.0,-999.0,68,-99.99,,,0.00,weatherlink.com 1.10,2013-03-02 07:09:00,
2013-03-02 09:24:00,53.1,42.0,29.92,East,83,0.0,-999.0,66,-99.99,,,0.00,weatherlink.com 1.10,2013-03-02 07:24:00,
2013-03-02 09:39:00,52.4,41.0,29.93,East,83,0.0,-999.0,66,-99.99,,,0.00,weatherlink.com 1.10,2013-03-02 07:39:00,
2013-03-02 09:54:00,52.3,42.0,29.93,East,83,0.0,-999.0,67,-99.99,,,0.00,weatherlink.com 1.10,2013-03-02 07:54:00,
2013-03-02 10:09:00,52.8,42.0,29.92,East,83,0.0,-999.0,68,-99.99,,,0.00,weatherlink.com 1.10,2013-03-02 08:09:00,
2013-03-02 10:24:00,53.3,42.0,29.92,East,83,0.0,-999.0,66,-99.99,,,0.00,weatherlink.com 1.10,2013-03-02 08:24:00,
2013-03-02 10:39:00,54.3,42.0,29.92,East,88,1.0,-999.0,63,-99.99,,,0.00,weatherlink.com 1.10,2013-03-02 08:39:00,
2013-03-02 10:54:00,54.0,42.0,29.92,SSW,206,1.0,-999.0,64,-99.99,,,0.00,weatherlink.com 1.10,2013-03-02 08:54:00,
2013-03-02 11:09:00,55.1,43.0,29.92,SSW,206,0.0,-999.0,64,-99.99,,,0.00,weatherlink.com 1.10,2013-03-02 09:09:00,
2013-03-02 11:24:00,55.7,43.0,29.91,SSW,206,5.0,-999.0,63,-99.99,,,0.00,weatherlink.com 1.10,2013-03-02 09:24:00,
2013-03-02 11:39:00,54.8,43.0,29.91,WNW,300,0.0,-999.0,64,-99.99,,,0.00,weatherlink.com 1.10,2013-03-02 09:39:00,
2013-03-02 11:54:00,55.6,43.0,29.91,WNW,300,0.0,-999.0,64,-99.99,,,0.00,weatherlink.com 1.10,2013-03-02 09:54:00,
2013-03-02 12:09:00,55.8,44.0,29.90,South,188,7.0,-999.0,66,-99.99,,,0.00,weatherlink.com 1.10,2013-03-02 10:09:00,
2013-03-02 12:24:00,54.9,44.0,29.90,SW,231,7.0,-999.0,68,-99.99,,,0.00,weatherlink.com 1.10,2013-03-02 10:24:00,
2013-03-02 12:39:00,54.9,44.0,29.90,SSW,195,5.0,-999.0,68,-99.99,,,0.00,weatherlink.com 1.10,2013-03-02 10:39:00,
2013-03-02 12:54:00,55.0,45.0,29.89,SSW,199,0.0,-999.0,69,-99.99,,,0.00,weatherlink.com 1.10,2013-03-02 10:54:00,
2013-03-02 13:09:00,55.3,45.0,29.88,SSW,202,8.0,-999.0,68,-99.99,,,0.00,weatherlink.com 1.10,2013-03-02 11:09:00,
2013-03-02 13:24:00,55.3,45.0,29.88,West,267,7.0,-999.0,69,-99.99,,,0.00,weatherlink.com 1.10,2013-03-02 11:24:00,
2013-03-02 13:39:00,55.0,45.0,29.87,SSW,213,5.0,-999.0,69,-99.99,,,0.00,weatherlink.com 1.10,2013-03-02 11:39:00,
2013-03-02 13:54:00,55.3,45.0,29.87,SSW,212,5.0,-999.0,69,-99.99,,,0.00,weatherlink.com 1.10,2013-03-02 11:54:00,
2013-03-02 14:09:00,55.1,45.0,29.87,WSW,244,5.0,-999.0,70,-99.99,,,0.00,weatherlink.com 1.10,2013-03-02 12:09:00,
2013-03-02 14:24:00,54.7,45.0,29.87,SSW,210,6.0,-999.0,70,-99.99,,,0.00,weatherlink.com 1.10,2013-03-02 12:24:00,
2013-03-02 14:39:00,54.5,45.0,29.87,SW,217,7.0,-999.0,71,-99.99,,,0.00,weatherlink.com 1.10,2013-03-02 12:39:00,
2013-03-02 14:54:00,54.7,45.0,29.86,SW,221,4.0,-999.0,71,-99.99,,,0.00,weatherlink.com 1.10,2013-03-02 12:54:00,
2013-03-02 15:09:00,54.9,45.0,29.87,SSW,212,2.0,-999.0,70,-99.99,,,0.00,weatherlink.com 1.10,2013-03-02 13:09:00,
2013-03-02 15:24:00,55.0,45.0,29.87,SW,230,4.0,-999.0,70,-99.99,,,0.00,weatherlink.com 1.10,2013-03-02 13:24:00,
2013-03-02 15:39:00,55.4,45.0,29.87,SW,227,9.0,-999.0,68,-99.99,,,0.00,weatherlink.com 1.10,2013-03-02 13:39:00,
2013-03-02 15:54:00,54.9,45.0,29.87,SW,221,10.0,-999.0,69,-99.99,,,0.00,weatherlink.com 1.10,2013-03-02 13:54:00,
2013-03-02 16:09:00,55.0,45.0,29.87,SW,236,4.0,-999.0,69,-99.99,,,0.00,weatherlink.com 1.10,2013-03-02 14:09:00,
2013-03-02 16:24:00,54.5,45.0,29.87,SSW,195,2.0,-999.0,70,-99.99,,,0.00,weatherlink.com 1.10,2013-03-02 14:24:00,
2013-03-02 16:39:00,54.6,45.0,29.87,SSW,211,5.0,-999.0,71,-99.99,,,0.00,weatherlink.com 1.10,2013-03-02 14:39:00,
2013-03-02 16:54:00,54.5,45.0,29.86,WSW,242,5.0,-999.0,71,-99.99,,,0.00,weatherlink.com 1.10,2013-03-02 14:54:00,
2013-03-02 17:09:00,54.2,45.0,29.86,SW,223,4.0,-999.0,72,-99.99,,,0.00,weatherlink.com 1.10,2013-03-02 15:09:00,
2013-03-02 17:24:00,54.2,45.0,29.87,WSW,237,5.0,-999.0,72,-99.99,,,0.00,weatherlink.com 1.10,2013-03-02 15:24:00,
2013-03-02 17:39:00,54.2,45.0,29.87,WSW,244,0.0,-999.0,70,-99.99,,,0.00,weatherlink.com 1.10,2013-03-02 15:39:00,
2013-03-02 17:54:00,54.2,41.0,29.88,ENE,58,0.0,-999.0,62,-99.99,,,0.00,weatherlink.com 1.10,2013-03-02 15:54:00,
2013-03-02 18:09:00,54.2,41.0,29.88,ENE,57,0.0,-999.0,61,-99.99,,,0.00,weatherlink.com 1.10,2013-03-02 16:09:00,
2013-03-02 18:24:00,53.9,41.0,29.88,ENE,57,0.0,-999.0,61,-99.99,,,0.00,weatherlink.com 1.10,2013-03-02 16:24:00,
2013-03-02 18:39:00,53.6,40.0,29.88,ENE,69,1.0,-999.0,60,-99.99,,,0.00,weatherlink.com 1.10,2013-03-02 16:39:00,
2013-03-02 18:54:00,53.7,40.0,29.88,NE,40,0.0,-999.0,60,-99.99,,,0.00,weatherlink.com 1.10,2013-03-02 16:54:00,
2013-03-02 19:09:00,53.5,42.0,29.88,NE,38,1.0,-999.0,65,-99.99,,,0.00,weatherlink.com 1.10,2013-03-02 17:09:00,
2013-03-02 19:24:00,53.3,43.0,29.88,East,91,5.0,-999.0,67,-99.99,,,0.00,weatherlink.com 1.10,2013-03-02 17:24:00,
2013-03-02 19:39:00,54.0,44.0,29.89,ENE,76,3.0,-999.0,68,-99.99,,,0.00,weatherlink.com 1.10,2013-03-02 17:39:00,
2013-03-02 19:54:00,53.7,44.0,29.89,ENE,60,1.0,-999.0,69,-99.99,,,0.00,weatherlink.com 1.10,2013-03-02 17:54:00,
2013-03-02 20:09:00,53.5,44.0,29.89,NE,44,0.0,-999.0,71,-99.99,,,0.00,weatherlink.com 1.10,2013-03-02 18:09:00,
2013-03-02 20:24:00,53.3,44.0,29.88,East,81,6.0,-999.0,71,-99.99,,,0.00,weatherlink.com 1.10,2013-03-02 18:24:00,
2013-03-02 20:39:00,53.0,43.0,29.88,ENE,71,5.0,-999.0,70,-99.99,,,0.00,weatherlink.com 1.10,2013-03-02 18:39:00,
2013-03-02 20:54:00,52.9,43.0,29.88,NNE,22,2.0,-999.0,69,-99.99,,,0.00,weatherlink.com 1.10,2013-03-02 18:54:00,
2013-03-02 21:09:00,53.0,42.0,29.88,NNE,16,0.0,-999.0,67,-99.99,,,0.00,weatherlink.com 1.10,2013-03-02 19:09:00,
2013-03-02 21:24:00,52.9,42.0,29.87,NW,323,3.0,-999.0,67,-99.99,,,0.00,weatherlink.com 1.10,2013-03-02 19:24:00,
2013-03-02 21:39:00,53.1,42.0,29.86,NNW,341,3.0,-999.0,66,-99.99,,,0.00,weatherlink.com 1.10,2013-03-02 19:39:00,
2013-03-02 21:54:00,53.3,43.0,29.86,ENE,63,6.0,-999.0,69,-99.99,,,0.00,weatherlink.com 1.10,2013-03-02 19:54:00,
2013-03-02 22:09:00,52.9,44.0,29.86,East,85,10.0,-999.0,72,-99.99,,,0.00,weatherlink.com 1.10,2013-03-02 20:09:00,
2013-03-02 22:24:00,52.8,44.0,29.86,ENE,63,4.0,-999.0,73,-99.99,,,0.00,weatherlink.com 1.10,2013-03-02 20:24:00,
2013-03-02 22:39:00,52.6,45.0,29.85,NNE,22,5.0,-999.0,74,-99.99,,,0.00,weatherlink.com 1.10,2013-03-02 20:39:00,
2013-03-02 22:54:00,52.6,45.0,29.85,North,5,1.0,-999.0,75,-99.99,,,0.00,weatherlink.com 1.10,2013-03-02 20:54:00,
2013-03-02 23:09:00,52.6,45.0,29.85,NNW,331,0.0,-999.0,75,-99.99,,,0.00,weatherlink.com 1.10,2013-03-02 21:09:00,
2013-03-02 23:24:00,52.8,45.0,29.85,NW,323,3.0,-999.0,75,-99.99,,,0.00,weatherlink.com 1.10,2013-03-02 21:24:00,
2013-03-02 23:39:00,52.9,45.0,29.84,NNW,340,4.0,-999.0,75,-99.99,,,0.00,weatherlink.com 1.10,2013-03-02 21:39:00,
2013-03-02 23:54:00,52.9,45.0,29.84,NNW,346,4.0,-999.0,75,-99.99,,,0.00,weatherlink.com 1.10,2013-03-02 21:54:00,